Regional Weather Roundup
Issued by NWS

Home | Current Version | Previous Version | Text Only | Print | Product List | Glossary Off
Versions: 1 2 3 4 5 6 7 8 9 10 11 12 13 14 15 16 17 18 19 20 21 22 23 24 25 26 27 28 29 30 31 32 33 34 35 36 37 38 39 40 41 42 43 44 45 46 47 48 49 50

000
ASUS43 KLOT 222106
RWRIL

ILLINOIS REGIONAL WEATHER ROUNDUP
NATIONAL WEATHER SERVICE CHICAGO/ROMEOVILLE IL
400 PM CDT TUE APR 22 2014

NOTE: "FAIR" INDICATES FEW OR NO CLOUDS BELOW 12,000 FEET WITH NO
SIGNIFICANT WEATHER AND/OR OBSTRUCTIONS TO VISIBILITY.

* THESE STATIONS ARE NOT UNDER NWS QUALITY CONTROL. THEY ALSO MAY NOT
  REPORT WEATHER SUCH AS PRECIPITATION OR FOG.

ILZ001-002-007-009-015-016-024-222200-
NORTHWEST ILLINOIS

CITY           SKY/WX    TMP DP  RH WIND       PRES   REMARKS
MOLINE         SUNNY     63  28  26 NW16G24   30.00F
STERLING*      PTSUNNY   61  34  36 NW8       29.98F
SAVANNA*       MOSUNNY   60  27  28 NW14      30.00S
$$

ILZ003-004-008-010-011-017-018-222200-
NORTH CENTRAL ILLINOIS

CITY           SKY/WX    TMP DP  RH WIND       PRES   REMARKS
ROCKFORD       PTSUNNY   61  26  26 NW17G23   29.99R
FREEPORT*      PTSUNNY   57  24  28 NW15      30.00F
ROCHELLE*      MOSUNNY   61  28  27 N17G23    29.97S
DE KALB*       MOSUNNY   58  27  30 N15       29.97S
PERU*          MOSUNNY   61  33  33 NW14G22   29.98S
$$

ILZ005-006-012>014-019>023-222200-
NORTHEAST ILLINOIS

CITY           SKY/WX    TMP DP  RH WIND       PRES   REMARKS
CHICAGO-OHARE  PTSUNNY   56  31  38 E18       29.95S
CHICAGO-MIDWAY PTSUNNY   50  33  52 E14       29.96S
AURORA         MOSUNNY   61  29  29 NW22      29.96F
LANSING*       SUNNY     51  32  48 NE9       29.96S
JOLIET*        SUNNY     59  29  31 NW14G20   29.95F
WAUKEGAN       MOSUNNY   45  31  58 E13       29.96S
DUPAGE AIRPORT SUNNY     60  28  29 N16       29.95S
KANKAKEE*      SUNNY     59  36  42 NW13G20   29.95S
WHEELING       SUNNY     51  31  46 NE14      29.97R
MORRIS*        SUNNY     60  24  25 NW15G22   29.95S
NORTHERLY ISL    N/A     44  33  65 E10         N/A
$$

LMZ740>746-222200-
SOUTHERN LAKE MICHIGAN

STATION/POSITION SKY/WX   TEMP    WIND        PRES    VSBY  WAVE
                          AIR SEA DIR/SP/G                  HT/PER
                          (F)     (DEG/KT/KT) (MB)    (MI)  (FT/S)
WAUKEGAN HARBOR            40      90/ 10/ 12 1016.6R
HARRISON CRIB              40      80/ 11/ 14   N/A
BURNHAM HARBOR             44      70/ 10/ 11   N/A
CALUMET HARBOR             42      50/ 11/ 13 1015.8S
MICHIGAN CITY              40      20/ 16/ 19   N/A
$$

ILZ025>027-034>036-040-047-049-050-058-095>099-222200-
WEST-CENTRAL ILLINOIS

CITY           SKY/WX    TMP DP  RH WIND       PRES   REMARKS
QUINCY         SUNNY     64  34  32 N13G23    30.02F
GALESBURG*     SUNNY     63  32  30 NW16G22   30.01S
MACOMB*        SUNNY     64  29  26 NW16G23   30.03F
JACKSONVILLE*  SUNNY     66  28  23 NW15G22   30.00F
PITTSFIELD*    SUNNY     66  31  27 NW10G21   30.02F
$$

ILZ028>032-037-038-041>044-048-051>054-059>061-222200-
CENTRAL ILLINOIS

CITY           SKY/WX    TMP DP  RH WIND       PRES   REMARKS
PONTIAC        SUNNY     63  34  34 NW15G22   29.96S
BLOOMINGTON    SUNNY     62  31  31 NW14      29.97F
DECATUR        SUNNY     65  29  25 NW13G25   29.96F
PEORIA         SUNNY     64  29  26 NW14G20   29.98F
LACON*         MOSUNNY   62  30  30 NW13G22   29.97F
LINCOLN*       SUNNY     66  30  26 NW6       29.97S
SPRINGFIELD    SUNNY     67  30  25 N14G23    29.98F
TAYLORVILLE    SUNNY     64  32  29 NW17G23   29.97F
$$

ILZ033-039-045-046-055>057-062-063-222200-
EAST-CENTRAL ILLINOIS

CITY           SKY/WX    TMP DP  RH WIND       PRES   REMARKS
CHAMPAIGN      SUNNY     66  34  30 NW16G25   29.95S
RANTOUL*       SUNNY     63  31  29 NW13      29.96S
MATTOON        SUNNY     66  32  28 N16       29.94F
PARIS*         SUNNY     65  35  32 NW18      29.94S
$$

ILZ079-100>102-222200-
SOUTHWEST ILLINOIS

CITY           SKY/WX    TMP DP  RH WIND       PRES   REMARKS
ALTON          SUNNY     66  30  26 NW14      29.99F
BELLEVILLE     SUNNY     68  37  31 N9G17     29.98S
CAHOKIA*       SUNNY     69  38  32 N15G22    29.99S
SPARTA*        SUNNY     66  39  37 NW12      29.98F
$$

ILZ064>066-069>071-074>076-080>082-084>086-088>090-092>094-222200-
SOUTH-CENTRAL ILLINOIS

CITY           SKY/WX    TMP DP  RH WIND       PRES   REMARKS
CARBONDALE     SUNNY     68  41  37 NW10G18   29.96F
CAIRO*         SUNNY     76  38  25 N12G17    29.92F
MARION         SUNNY     70  37  30 N9        29.96F
MT. VERNON     SUNNY    N/A N/A N/A N9G18     29.96F
CENTRALIA*       N/A     66  36  32 CALM      29.96F
SALEM*         SUNNY     67  42  39 N14       29.96F
METROPOLIS*    SUNNY     72  33  23 N10       29.91F
$$

ILZ067-068-072-073-078-083-087-091-222200-
SOUTHEAST ILLINOIS

CITY           SKY/WX    TMP DP  RH WIND       PRES   REMARKS
FAIRFIELD*     SUNNY     68  41  37 N10       29.94F
HARRISBURG*    SUNNY     69  40  34 NW15      29.94F
ROBINSON*      SUNNY     69  39  33 NW17      29.94S
CARMI*         SUNNY     70  41  34 NW15G21   29.93S
$$

ABBREVIATIONS USED IN REMARKS
   TC - TEMPERATURE IN CELSIUS
  WCI - WIND CHILL INDEX
   HX - HEAT INDEX
  VSB - VISIBILITY
$$




USA.gov is the U.S. government's official web portal to all federal, state and local government web resources and services.